Time,TemperatureF,DewpointF,PressureIn,WindDirection,WindDirectionDegrees,WindSpeedMPH,WindSpeedGustMPH,Humidity,HourlyPrecipIn,Conditions,Clouds,dailyrainin,SolarRadiationWatts/m^2,SoftwareType,DateUTC
2013-01-29 00:01:00,44.4,41.9,28.99,WSW,256,27.0,27.0,91,0.15,RA,,0.01,0.0,WeatherDisplay:10.37,2013-01-29 00:01:00,
2013-01-29 00:06:00,44.4,41.9,29.00,West,277,20.7,20.7,91,0.15,RA,,0.02,0.0,WeatherDisplay:10.37,2013-01-29 00:06:00,
2013-01-29 00:11:00,44.3,41.8,29.00,SW,235,16.1,16.1,91,0.14,RA,,0.02,0.0,WeatherDisplay:10.37,2013-01-29 00:11:00,
2013-01-29 00:16:00,44.3,41.8,29.00,WSW,248,17.3,17.3,91,0.13,RA,,0.03,0.0,WeatherDisplay:10.37,2013-01-29 00:16:00,
2013-01-29 00:21:00,44.2,41.7,29.00,West,268,18.4,18.4,91,0.13,RA,,0.03,0.0,WeatherDisplay:10.37,2013-01-29 00:21:00,
2013-01-29 00:26:00,44.2,41.7,29.01,WSW,237,26.5,26.5,91,0.12,RA,,0.04,0.0,WeatherDisplay:10.37,2013-01-29 00:26:00,
2013-01-29 00:31:00,44.3,41.8,29.01,SW,234,19.6,19.6,91,0.12,RA,,0.05,0.0,WeatherDisplay:10.37,2013-01-29 00:31:00,
2013-01-29 00:36:00,44.3,41.8,29.01,WSW,258,19.6,19.6,91,0.12,RA,,0.06,0.0,WeatherDisplay:10.37,2013-01-29 00:36:00,
2013-01-29 00:41:00,44.3,41.8,29.02,SW,229,16.1,16.1,91,0.12,RA,,0.06,0.0,WeatherDisplay:10.37,2013-01-29 00:41:00,
2013-01-29 00:46:00,44.2,41.7,29.01,WSW,240,20.7,20.7,91,0.12,RA,,0.06,0.0,WeatherDisplay:10.37,2013-01-29 00:46:00,
2013-01-29 00:51:00,44.1,41.6,29.02,WSW,249,10.4,10.4,91,0.11,,,0.06,0.0,WeatherDisplay:10.37,2013-01-29 00:51:00,
2013-01-29 00:56:00,44.1,41.6,29.02,WSW,257,13.8,13.8,91,0.08,CLR,,0.06,0.0,WeatherDisplay:10.37,2013-01-29 00:56:00,
2013-01-29 01:01:00,44.2,41.7,29.03,West,260,25.3,25.3,91,0.06,CLR,,0.06,0.0,WeatherDisplay:10.37,2013-01-29 01:01:00,
2013-01-29 01:06:00,44.2,41.7,29.04,SW,225,17.3,17.3,91,0.04,CLR,,0.06,0.0,WeatherDisplay:10.37,2013-01-29 01:06:00,
2013-01-29 01:11:00,44.3,42.1,29.05,WSW,245,15.0,15.0,92,0.04,CLR,,0.06,0.0,WeatherDisplay:10.37,2013-01-29 01:11:00,
2013-01-29 01:16:00,44.3,42.1,29.05,WSW,254,11.5,11.5,92,0.03,CLR,,0.06,0.0,WeatherDisplay:10.37,2013-01-29 01:16:00,
2013-01-29 01:21:00,44.4,42.2,29.06,WSW,250,13.8,13.8,92,0.03,CLR,,0.06,0.0,WeatherDisplay:10.37,2013-01-29 01:21:00,
2013-01-29 01:26:00,44.4,42.2,29.07,West,261,17.3,17.3,92,0.02,CLR,,0.06,0.0,WeatherDisplay:10.37,2013-01-29 01:26:00,
2013-01-29 01:31:00,44.4,42.2,29.08,WSW,257,17.3,17.3,92,0.02,CLR,,0.06,0.0,WeatherDisplay:10.37,2013-01-29 01:31:00,
2013-01-29 01:36:00,44.4,41.9,29.08,WSW,246,6.0,6.0,91,0.01,CLR,,0.06,0.0,WeatherDisplay:10.37,2013-01-29 01:36:00,
2013-01-29 01:41:00,44.3,41.8,29.08,NW,311,15.0,15.0,91,0.00,CLR,,0.06,0.0,WeatherDisplay:10.37,2013-01-29 01:41:00,
2013-01-29 01:46:00,44.1,41.6,29.09,WSW,246,19.6,19.6,91,0.00,CLR,,0.06,0.0,WeatherDisplay:10.37,2013-01-29 01:46:00,
2013-01-29 01:51:00,44.0,41.5,29.09,West,275,9.2,9.2,91,0.00,CLR,,0.06,0.0,WeatherDisplay:10.37,2013-01-29 01:51:00,
2013-01-29 01:56:00,43.9,41.4,29.09,NW,306,5.8,5.8,91,0.00,CLR,,0.06,0.0,WeatherDisplay:10.37,2013-01-29 01:56:00,
2013-01-29 02:01:00,43.8,41.3,29.10,West,262,4.6,4.6,91,0.00,CLR,,0.06,0.0,WeatherDisplay:10.37,2013-01-29 02:01:00,
2013-01-29 02:06:00,43.6,41.1,29.11,WSW,253,11.5,11.5,91,0.00,CLR,,0.06,0.0,WeatherDisplay:10.37,2013-01-29 02:06:00,
2013-01-29 02:11:00,43.4,40.9,29.11,West,263,13.0,13.0,91,0.00,CLR,,0.06,0.0,WeatherDisplay:10.37,2013-01-29 02:11:00,
2013-01-29 02:16:00,43.3,40.8,29.12,NW,319,10.4,10.4,91,0.00,CLR,,0.06,0.0,WeatherDisplay:10.37,2013-01-29 02:16:00,
2013-01-29 02:21:00,43.3,40.8,29.12,WSW,239,18.4,18.4,91,0.00,CLR,,0.06,0.0,WeatherDisplay:10.37,2013-01-29 02:21:00,
2013-01-29 02:26:00,43.3,40.8,29.13,NW,312,5.8,5.8,91,0.00,CLR,,0.06,0.0,WeatherDisplay:10.37,2013-01-29 02:26:00,
2013-01-29 02:31:00,43.3,40.8,29.14,WSW,246,10.4,10.4,91,0.00,CLR,,0.06,0.0,WeatherDisplay:10.37,2013-01-29 02:31:00,
2013-01-29 02:36:00,43.3,40.8,29.14,NW,310,10.4,10.4,91,0.00,CLR,,0.06,0.0,WeatherDisplay:10.37,2013-01-29 02:36:00,
2013-01-29 02:41:00,43.3,40.8,29.15,WNW,288,15.0,15.0,91,0.00,CLR,,0.06,0.0,WeatherDisplay:10.37,2013-01-29 02:41:00,
2013-01-29 02:46:00,43.2,40.8,29.16,WSW,250,4.6,4.6,91,0.00,CLR,,0.06,0.0,WeatherDisplay:10.37,2013-01-29 02:46:00,
2013-01-29 02:51:00,43.1,40.7,29.17,West,268,15.0,15.0,91,0.00,CLR,,0.06,0.0,WeatherDisplay:10.37,2013-01-29 02:51:00,
2013-01-29 02:56:00,43.0,40.3,29.17,WNW,283,11.5,11.5,90,0.00,CLR,,0.06,0.0,WeatherDisplay:10.37,2013-01-29 02:56:00,
2013-01-29 03:01:00,42.9,40.2,29.18,WNW,289,10.4,10.4,90,0.00,CLR,,0.06,0.0,WeatherDisplay:10.37,2013-01-29 03:01:00,
2013-01-29 03:06:00,42.8,40.1,29.18,WSW,242,16.0,16.0,90,0.00,CLR,,0.06,0.0,WeatherDisplay:10.37,2013-01-29 03:06:00,
2013-01-29 03:11:00,42.7,40.0,29.18,West,276,16.1,16.1,90,0.00,CLR,,0.06,0.0,WeatherDisplay:10.37,2013-01-29 03:11:00,
2013-01-29 03:16:00,42.7,40.0,29.18,WNW,289,6.9,6.9,90,0.00,CLR,,0.06,0.0,WeatherDisplay:10.37,2013-01-29 03:16:00,
2013-01-29 03:22:00,42.6,39.6,29.18,WSW,254,19.6,19.6,89,0.00,CLR,,0.06,0.0,WeatherDisplay:10.37,2013-01-29 03:22:00,
2013-01-29 03:27:00,42.5,39.5,29.18,SW,233,19.6,19.6,89,0.00,CLR,,0.06,0.0,WeatherDisplay:10.37,2013-01-29 03:27:00,
2013-01-29 03:32:00,42.5,39.2,29.18,WSW,246,26.5,26.5,88,0.00,CLR,,0.06,0.0,WeatherDisplay:10.37,2013-01-29 03:32:00,
2013-01-29 03:37:00,42.5,39.2,29.19,SW,236,11.5,11.5,88,0.00,CLR,,0.06,0.0,WeatherDisplay:10.37,2013-01-29 03:37:00,
2013-01-29 03:42:00,42.4,39.1,29.19,West,272,17.3,17.3,88,0.00,CLR,,0.06,0.0,WeatherDisplay:10.37,2013-01-29 03:42:00,
2013-01-29 03:47:00,42.4,39.1,29.20,SW,224,9.2,9.2,88,0.00,CLR,,0.06,0.0,WeatherDisplay:10.37,2013-01-29 03:47:00,
2013-01-29 03:52:00,42.4,39.1,29.20,WSW,252,11.5,11.5,88,0.00,CLR,,0.06,0.0,WeatherDisplay:10.37,2013-01-29 03:52:00,
2013-01-29 03:57:00,42.5,39.5,29.21,WSW,250,18.4,18.4,89,0.00,CLR,,0.06,0.0,WeatherDisplay:10.37,2013-01-29 03:57:00,
2013-01-29 04:02:00,42.6,39.6,29.21,WSW,253,16.1,16.1,89,0.00,CLR,,0.06,0.0,WeatherDisplay:10.37,2013-01-29 04:02:00,
2013-01-29 04:07:00,42.8,39.8,29.21,WSW,242,13.0,13.0,89,0.00,CLR,,0.06,0.0,WeatherDisplay:10.37,2013-01-29 04:07:00,
2013-01-29 04:12:00,42.9,39.9,29.22,WSW,248,9.0,9.0,89,0.00,CLR,,0.06,0.0,WeatherDisplay:10.37,2013-01-29 04:12:00,
2013-01-29 04:17:00,43.0,39.7,29.22,WSW,251,19.6,19.6,88,0.00,CLR,,0.06,0.0,WeatherDisplay:10.37,2013-01-29 04:17:00,
2013-01-29 04:23:00,43.0,39.7,29.23,WSW,242,16.1,16.1,88,0.00,CLR,,0.06,0.0,WeatherDisplay:10.37,2013-01-29 04:23:00,
2013-01-29 04:28:00,43.0,39.7,29.23,WSW,255,11.5,11.5,88,0.00,CLR,,0.06,0.0,WeatherDisplay:10.37,2013-01-29 04:28:00,
2013-01-29 04:33:00,43.0,39.7,29.23,WNW,294,4.6,4.6,88,0.00,CLR,,0.06,0.0,WeatherDisplay:10.37,2013-01-29 04:33:00,
2013-01-29 04:38:00,42.9,39.6,29.23,NW,317,5.8,5.8,88,0.00,CLR,,0.06,0.0,WeatherDisplay:10.37,2013-01-29 04:38:00,
2013-01-29 04:43:00,42.8,39.5,29.23,WSW,241,21.9,21.9,88,0.00,CLR,,0.06,0.0,WeatherDisplay:10.37,2013-01-29 04:43:00,
2013-01-29 04:48:00,42.9,39.6,29.23,WSW,253,13.8,13.8,88,0.00,CLR,,0.06,0.0,WeatherDisplay:10.37,2013-01-29 04:48:00,
2013-01-29 04:53:00,43.0,39.7,29.24,WSW,248,12.7,12.7,88,0.00,CLR,,0.06,0.0,WeatherDisplay:10.37,2013-01-29 04:53:00,
2013-01-29 04:58:00,43.0,39.7,29.24,West,269,18.4,18.4,88,0.00,CLR,,0.06,0.0,WeatherDisplay:10.37,2013-01-29 04:58:00,
2013-01-29 05:00:00,43.0,39.7,29.24,West,277,17.3,17.3,88,0.00,CLR,,0.06,0.0,WeatherDisplay:10.37,2013-01-29 05:00:00,
2013-01-29 05:01:00,43.0,39.7,29.23,SW,230,17.3,17.3,88,0.00,CLR,,0.06,0.0,WeatherDisplay:10.37,2013-01-29 05:01:00,
2013-01-29 05:03:00,43.1,39.8,29.24,WNW,301,13.8,13.8,88,0.00,CLR,,0.06,0.0,WeatherDisplay:10.37,2013-01-29 05:03:00,
2013-01-29 05:08:00,43.2,39.9,29.24,SW,225,27.6,27.6,88,0.00,CLR,,0.06,0.0,WeatherDisplay:10.37,2013-01-29 05:08:00,
2013-01-29 05:13:00,43.3,39.7,29.24,WSW,244,15.0,15.0,87,0.00,CLR,,0.06,0.0,WeatherDisplay:10.37,2013-01-29 05:13:00,
2013-01-29 05:18:00,43.3,39.7,29.24,WNW,298,9.2,9.2,87,0.00,CLR,,0.06,0.0,WeatherDisplay:10.37,2013-01-29 05:18:00,
2013-01-29 05:23:00,43.3,39.7,29.25,WSW,256,15.0,15.0,87,0.00,CLR,,0.06,0.0,WeatherDisplay:10.37,2013-01-29 05:23:00,
2013-01-29 05:28:00,43.2,39.6,29.25,WSW,243,17.3,17.3,87,0.00,CLR,,0.06,0.0,WeatherDisplay:10.37,2013-01-29 05:28:00,
2013-01-29 05:33:00,43.2,39.6,29.25,West,261,19.6,19.6,87,0.00,CLR,,0.06,0.0,WeatherDisplay:10.37,2013-01-29 05:33:00,
2013-01-29 05:38:00,43.3,39.7,29.25,WSW,248,24.2,24.2,87,0.00,CLR,,0.06,0.0,WeatherDisplay:10.37,2013-01-29 05:38:00,
2013-01-29 05:43:00,43.3,39.7,29.25,West,267,20.7,20.7,87,0.00,CLR,,0.06,0.0,WeatherDisplay:10.37,2013-01-29 05:43:00,
2013-01-29 05:48:00,43.4,39.5,29.25,WNW,282,15.0,15.0,86,0.00,CLR,,0.06,0.0,WeatherDisplay:10.37,2013-01-29 05:48:00,
2013-01-29 05:53:00,43.3,39.4,29.26,SW,227,23.0,23.0,86,0.00,CLR,,0.06,0.0,WeatherDisplay:10.37,2013-01-29 05:53:00,
2013-01-29 05:58:00,43.3,39.7,29.26,SW,229,19.6,19.6,87,0.00,CLR,,0.06,0.0,WeatherDisplay:10.37,2013-01-29 05:58:00,
2013-01-29 06:03:00,43.3,39.7,29.27,WSW,253,15.0,15.0,87,0.00,CLR,,0.06,0.0,WeatherDisplay:10.37,2013-01-29 06:03:00,
2013-01-29 06:08:00,43.3,39.7,29.27,WSW,253,19.6,19.6,87,0.00,CLR,,0.06,0.0,WeatherDisplay:10.37,2013-01-29 06:08:00,
2013-01-29 06:13:00,43.3,39.7,29.28,WSW,241,13.8,13.8,87,0.00,CLR,,0.06,0.0,WeatherDisplay:10.37,2013-01-29 06:13:00,
2013-01-29 06:18:00,43.3,39.7,29.29,SW,233,10.4,10.4,87,0.00,CLR,,0.06,0.0,WeatherDisplay:10.37,2013-01-29 06:18:00,
2013-01-29 06:23:00,43.2,39.6,29.29,WSW,238,15.0,15.0,87,0.00,CLR,,0.06,0.0,WeatherDisplay:10.37,2013-01-29 06:23:00,
2013-01-29 06:28:00,43.2,39.6,29.30,WSW,255,12.7,12.7,87,0.00,CLR,,0.06,0.0,WeatherDisplay:10.37,2013-01-29 06:28:00,
2013-01-29 06:33:00,43.3,39.4,29.30,WSW,237,11.5,11.5,86,0.00,CLR,,0.06,0.0,WeatherDisplay:10.37,2013-01-29 06:33:00,
2013-01-29 06:38:00,43.3,39.4,29.30,SW,231,15.0,15.0,86,0.00,CLR,,0.06,0.0,WeatherDisplay:10.37,2013-01-29 06:38:00,
2013-01-29 06:43:00,43.3,39.4,29.30,WSW,248,16.1,16.1,86,0.00,CLR,,0.06,0.0,WeatherDisplay:10.37,2013-01-29 06:43:00,
2013-01-29 06:48:00,43.3,39.4,29.30,West,269,15.0,15.0,86,0.00,CLR,,0.06,0.0,WeatherDisplay:10.37,2013-01-29 06:48:00,
2013-01-29 06:53:00,43.3,39.4,29.30,WSW,253,16.1,16.1,86,0.00,CLR,,0.06,0.0,WeatherDisplay:10.37,2013-01-29 06:53:00,
2013-01-29 06:58:00,43.3,39.4,29.31,SW,217,13.0,13.0,86,0.00,CLR,,0.06,0.0,WeatherDisplay:10.37,2013-01-29 06:58:00,
2013-01-29 07:03:00,43.3,39.1,29.31,SW,217,19.6,19.6,85,0.00,CLR,,0.06,0.0,WeatherDisplay:10.37,2013-01-29 07:03:00,
2013-01-29 07:08:00,43.3,39.1,29.31,WSW,244,10.4,10.4,85,0.00,CLR,,0.06,0.0,WeatherDisplay:10.37,2013-01-29 07:08:00,
2013-01-29 07:13:00,43.3,39.1,29.31,WSW,244,19.6,19.6,85,0.00,CLR,,0.06,0.0,WeatherDisplay:10.37,2013-01-29 07:13:00,
2013-01-29 07:18:00,43.3,38.8,29.30,WSW,243,19.6,19.6,84,0.00,CLR,,0.06,0.0,WeatherDisplay:10.37,2013-01-29 07:18:00,
2013-01-29 07:23:00,43.3,38.8,29.31,SW,235,15.0,15.0,84,0.00,CLR,,0.06,0.0,WeatherDisplay:10.37,2013-01-29 07:23:00,
2013-01-29 07:28:00,43.3,38.8,29.31,SSW,209,18.4,18.4,84,0.00,CLR,,0.06,0.0,WeatherDisplay:10.37,2013-01-29 07:28:00,
2013-01-29 07:33:00,43.3,38.8,29.31,WSW,253,19.6,19.6,84,0.00,CLR,,0.06,0.0,WeatherDisplay:10.37,2013-01-29 07:33:00,
2013-01-29 07:38:00,43.4,38.9,29.31,WSW,248,17.3,17.3,84,0.00,CLR,,0.06,0.0,WeatherDisplay:10.37,2013-01-29 07:38:00,
2013-01-29 07:43:00,43.4,38.9,29.31,WSW,242,12.7,12.7,84,0.00,CLR,,0.06,0.0,WeatherDisplay:10.37,2013-01-29 07:43:00,
2013-01-29 07:48:00,43.5,39.0,29.31,WSW,246,15.0,15.0,84,0.00,CLR,,0.06,0.0,WeatherDisplay:10.37,2013-01-29 07:48:00,
2013-01-29 07:53:00,43.5,39.0,29.29,WSW,242,20.7,20.7,84,0.00,CLR,,0.06,0.0,WeatherDisplay:10.37,2013-01-29 07:53:00,
2013-01-29 07:58:00,43.5,39.0,29.28,WSW,250,6.9,7.0,84,0.00,CLR,,0.06,0.0,WeatherDisplay:10.37,2013-01-29 07:58:00,
2013-01-29 08:03:00,43.5,39.0,29.29,SW,235,17.3,17.3,84,0.00,OVC,,0.06,0.0,WeatherDisplay:10.37,2013-01-29 08:03:00,
2013-01-29 08:08:00,43.5,39.0,29.29,WNW,299,12.0,12.0,84,0.00,OVC,,0.06,0.0,WeatherDisplay:10.37,2013-01-29 08:08:00,
2013-01-29 08:13:00,43.4,38.9,29.29,WSW,241,13.8,13.8,84,0.00,OVC,,0.06,0.0,WeatherDisplay:10.37,2013-01-29 08:13:00,
2013-01-29 08:18:00,43.4,38.9,29.29,SW,223,11.5,11.5,84,0.00,OVC,,0.06,0.0,WeatherDisplay:10.37,2013-01-29 08:18:00,
2013-01-29 08:23:00,43.3,38.8,29.30,WSW,241,11.5,11.5,84,0.00,OVC,,0.06,0.0,WeatherDisplay:10.37,2013-01-29 08:23:00,
2013-01-29 08:28:00,43.3,38.8,29.30,SW,225,12.7,12.7,84,0.00,OVC,,0.06,5.0,WeatherDisplay:10.37,2013-01-29 08:28:00,
2013-01-29 08:34:00,43.3,38.8,29.30,SW,227,11.5,11.5,84,0.00,BKN,,0.06,5.0,WeatherDisplay:10.37,2013-01-29 08:34:00,
2013-01-29 08:39:00,43.3,38.8,29.31,SSW,193,6.9,6.9,84,0.00,BKN,,0.06,5.0,WeatherDisplay:10.37,2013-01-29 08:39:00,
2013-01-29 08:44:00,43.3,38.8,29.30,SW,225,13.8,13.8,84,0.00,BKN,,0.06,7.0,WeatherDisplay:10.37,2013-01-29 08:44:00,
2013-01-29 08:49:00,43.3,38.8,29.31,WSW,246,13.8,13.8,84,0.00,BKN,,0.06,7.0,WeatherDisplay:10.37,2013-01-29 08:49:00,
2013-01-29 08:54:00,43.2,38.7,29.31,WSW,249,11.5,11.5,84,0.00,BKN,,0.06,9.0,WeatherDisplay:10.37,2013-01-29 08:54:00,
2013-01-29 08:59:00,43.2,38.7,29.30,SW,232,11.5,11.5,84,0.00,BKN,,0.06,9.0,WeatherDisplay:10.37,2013-01-29 08:59:00,
2013-01-29 09:04:00,43.1,38.6,29.30,WSW,238,14.0,14.0,84,0.00,BKN,,0.06,12.0,WeatherDisplay:10.37,2013-01-29 09:04:00,
2013-01-29 09:09:00,43.1,38.6,29.30,SSW,207,16.1,16.1,84,0.00,BKN,,0.06,19.0,WeatherDisplay:10.37,2013-01-29 09:09:00,
2013-01-29 09:14:00,43.0,38.5,29.30,SW,225,11.5,11.5,84,0.00,BKN,,0.06,32.0,WeatherDisplay:10.37,2013-01-29 09:14:00,
2013-01-29 09:19:00,43.0,38.5,29.30,SW,219,17.0,17.0,84,0.00,BKN,,0.06,25.0,WeatherDisplay:10.37,2013-01-29 09:19:00,
2013-01-29 09:24:00,43.1,38.6,29.30,SW,229,18.4,18.4,84,0.00,BKN,,0.06,18.0,WeatherDisplay:10.37,2013-01-29 09:24:00,
2013-01-29 09:29:00,43.1,38.6,29.29,SSW,192,11.5,11.5,84,0.00,BKN,,0.06,23.0,WeatherDisplay:10.37,2013-01-29 09:29:00,
2013-01-29 09:34:00,43.1,38.6,29.29,WSW,252,10.4,10.4,84,0.00,BKN,,0.06,19.0,WeatherDisplay:10.37,2013-01-29 09:34:00,
2013-01-29 09:39:00,43.1,38.6,29.28,WSW,240,16.1,16.1,84,0.00,BKN,,0.06,33.0,WeatherDisplay:10.37,2013-01-29 09:39:00,
2013-01-29 09:44:00,43.1,38.6,29.29,SW,232,16.1,16.1,84,0.00,BKN,,0.06,25.0,WeatherDisplay:10.37,2013-01-29 09:44:00,
2013-01-29 09:49:00,43.1,38.6,29.29,SSW,207,15.0,15.0,84,0.00,BKN,,0.06,30.0,WeatherDisplay:10.37,2013-01-29 09:49:00,
2013-01-29 09:54:00,43.1,38.6,29.28,SW,226,11.5,11.5,84,0.00,BKN,,0.06,40.0,WeatherDisplay:10.37,2013-01-29 09:54:00,
2013-01-29 09:59:00,43.1,38.9,29.28,WSW,245,10.4,10.4,85,0.00,BKN,,0.06,33.0,WeatherDisplay:10.37,2013-01-29 09:59:00,
2013-01-29 10:04:00,43.1,38.6,29.28,WSW,243,13.8,13.8,84,0.00,BKN,,0.06,33.0,WeatherDisplay:10.37,2013-01-29 10:04:00,
2013-01-29 10:09:00,43.0,38.8,29.29,West,259,11.5,11.5,85,0.00,BKN,,0.06,32.0,WeatherDisplay:10.37,2013-01-29 10:09:00,
2013-01-29 10:14:00,43.0,38.8,29.28,SW,226,9.2,9.2,85,0.00,BKN,,0.06,35.0,WeatherDisplay:10.37,2013-01-29 10:14:00,
2013-01-29 10:19:00,43.0,38.8,29.28,SW,235,9.2,9.2,85,0.00,BKN,,0.06,39.0,WeatherDisplay:10.37,2013-01-29 10:19:00,
2013-01-29 10:24:00,43.0,38.8,29.27,SW,218,6.9,6.9,85,0.00,BKN,,0.06,42.0,WeatherDisplay:10.37,2013-01-29 10:24:00,
2013-01-29 10:29:00,43.0,38.8,29.26,SW,223,9.2,9.2,85,0.00,BKN,,0.06,49.0,WeatherDisplay:10.37,2013-01-29 10:29:00,
2013-01-29 10:34:00,43.0,38.8,29.26,SW,226,6.9,6.9,85,0.00,BKN,,0.06,63.0,WeatherDisplay:10.37,2013-01-29 10:34:00,
2013-01-29 10:39:00,43.2,39.0,29.25,SSW,203,12.7,12.7,85,0.00,BKN,,0.06,76.0,WeatherDisplay:10.37,2013-01-29 10:39:00,
2013-01-29 10:44:00,43.3,38.8,29.24,SW,222,4.6,4.6,84,0.00,SCT,,0.06,90.0,WeatherDisplay:10.37,2013-01-29 10:44:00,
2013-01-29 10:49:00,43.4,38.9,29.24,SW,221,6.9,6.9,84,0.00,SCT,,0.06,97.0,WeatherDisplay:10.37,2013-01-29 10:49:00,
2013-01-29 10:54:00,43.5,39.0,29.24,SW,217,3.5,3.5,84,0.00,SCT,,0.06,79.0,WeatherDisplay:10.37,2013-01-29 10:54:00,
2013-01-29 10:59:00,43.7,39.2,29.24,SSW,200,7.0,7.0,84,0.00,SCT,,0.06,76.0,WeatherDisplay:10.37,2013-01-29 10:59:00,
2013-01-29 11:04:00,43.8,39.6,29.24,SW,236,5.8,5.8,85,0.00,BKN,,0.06,83.0,WeatherDisplay:10.37,2013-01-29 11:04:00,
2013-01-29 11:09:00,43.9,39.7,29.24,SW,233,4.6,4.6,85,0.00,BKN,,0.06,100.0,WeatherDisplay:10.37,2013-01-29 11:09:00,
2013-01-29 11:14:00,44.1,39.6,29.25,SW,227,6.9,6.9,84,0.00,SCT,,0.06,102.0,WeatherDisplay:10.37,2013-01-29 11:14:00,
2013-01-29 11:19:00,44.3,40.1,29.25,NNW,338,6.9,6.9,85,0.00,SCT,,0.06,69.0,WeatherDisplay:10.37,2013-01-29 11:19:00,
2013-01-29 11:24:00,44.4,39.9,29.24,SSW,210,13.8,13.8,84,0.00,BKN,,0.06,63.0,WeatherDisplay:10.37,2013-01-29 11:24:00,
2013-01-29 11:29:00,44.6,40.1,29.23,SW,232,11.5,11.5,84,0.00,BKN,,0.06,63.0,WeatherDisplay:10.37,2013-01-29 11:29:00,
2013-01-29 11:34:00,44.7,39.9,29.22,SSW,210,11.5,11.5,83,0.00,BKN,,0.06,58.0,WeatherDisplay:10.37,2013-01-29 11:34:00,
2013-01-29 11:39:00,44.8,40.0,29.21,SW,219,9.2,9.2,83,0.00,BKN,,0.06,69.0,WeatherDisplay:10.37,2013-01-29 11:39:00,
2013-01-29 11:44:00,44.8,40.0,29.22,SW,219,4.0,4.0,83,0.00,BKN,,0.06,77.0,WeatherDisplay:10.37,2013-01-29 11:44:00,
2013-01-29 11:49:00,44.9,40.0,29.21,SW,233,6.9,6.9,83,0.00,BKN,,0.06,88.0,WeatherDisplay:10.37,2013-01-29 11:49:00,
2013-01-29 11:54:00,44.9,40.4,29.21,SSW,211,2.3,2.3,84,0.00,BKN,,0.06,81.0,WeatherDisplay:10.37,2013-01-29 11:54:00,
2013-01-29 11:59:00,45.0,40.5,29.21,SSE,163,3.5,3.5,84,0.00,BKN,,0.06,67.0,WeatherDisplay:10.37,2013-01-29 11:59:00,
2013-01-29 12:04:00,45.0,40.1,29.20,SE,144,3.5,3.5,83,0.00,BKN,,0.06,62.0,WeatherDisplay:10.37,2013-01-29 12:04:00,
2013-01-29 12:09:00,45.1,40.2,29.20,SE,144,3.5,3.5,83,0.00,BKN,,0.06,46.0,WeatherDisplay:10.37,2013-01-29 12:09:00,
2013-01-29 12:14:00,45.1,40.2,29.20,SE,144,0.0,0.0,83,0.00,BKN,,0.06,42.0,WeatherDisplay:10.37,2013-01-29 12:14:00,
2013-01-29 12:19:00,45.2,40.3,29.20,SE,144,2.3,2.3,83,0.00,BKN,,0.06,30.0,WeatherDisplay:10.37,2013-01-29 12:19:00,
2013-01-29 12:24:00,45.2,40.3,29.20,SSE,148,3.5,3.5,83,0.00,BKN,,0.06,25.0,WeatherDisplay:10.37,2013-01-29 12:24:00,
2013-01-29 12:29:00,45.2,40.3,29.20,South,180,5.0,5.0,83,0.00,BKN,,0.06,23.0,WeatherDisplay:10.37,2013-01-29 12:29:00,
2013-01-29 12:34:00,45.2,40.3,29.20,SSE,160,4.6,4.6,83,0.00,OVC,,0.06,18.0,WeatherDisplay:10.37,2013-01-29 12:34:00,
2013-01-29 12:39:00,45.3,40.7,29.19,SE,143,3.5,3.5,84,0.01,RA,,0.07,16.0,WeatherDisplay:10.37,2013-01-29 12:39:00,
2013-01-29 12:44:00,45.3,40.7,29.18,South,187,9.2,9.2,84,0.01,RA,,0.07,16.0,WeatherDisplay:10.37,2013-01-29 12:44:00,
2013-01-29 12:49:00,45.3,40.7,29.18,SE,136,4.0,4.0,84,0.02,RA,,0.08,12.0,WeatherDisplay:10.37,2013-01-29 12:49:00,
2013-01-29 12:54:00,45.2,41.0,29.17,South,182,5.0,5.0,85,0.02,RA,,0.09,11.0,WeatherDisplay:10.37,2013-01-29 12:54:00,
2013-01-29 12:59:00,45.1,40.9,29.17,South,173,3.5,3.5,85,0.03,RA,,0.09,14.0,WeatherDisplay:10.37,2013-01-29 12:59:00,
2013-01-29 13:04:00,45.0,41.1,29.16,SSE,168,3.5,3.5,86,0.04,RA,,0.10,16.0,WeatherDisplay:10.37,2013-01-29 13:04:00,
2013-01-29 13:09:00,44.9,41.0,29.15,SSE,159,4.0,4.0,86,0.04,RA,,0.11,19.0,WeatherDisplay:10.37,2013-01-29 13:09:00,
2013-01-29 13:14:00,44.9,41.3,29.14,SSE,155,3.5,3.5,87,0.05,RA,,0.11,19.0,WeatherDisplay:10.37,2013-01-29 13:14:00,
2013-01-29 13:19:00,44.8,41.5,29.13,ESE,107,4.6,4.6,88,0.06,RA,,0.12,21.0,WeatherDisplay:10.37,2013-01-29 13:19:00,
2013-01-29 13:24:00,44.7,41.4,29.13,ESE,103,3.5,3.5,88,0.06,RA,,0.13,23.0,WeatherDisplay:10.37,2013-01-29 13:24:00,
2013-01-29 13:29:00,44.6,41.3,29.12,East,101,3.5,3.5,88,0.07,RA,,0.13,21.0,WeatherDisplay:10.37,2013-01-29 13:29:00,
2013-01-29 13:34:00,44.5,41.2,29.11,ESE,105,4.6,4.6,88,0.08,RA,,0.14,16.0,WeatherDisplay:10.37,2013-01-29 13:34:00,
2013-01-29 13:40:00,44.4,41.4,29.10,ESE,104,4.0,4.0,89,0.07,RA,,0.14,16.0,WeatherDisplay:10.37,2013-01-29 13:40:00,
2013-01-29 13:45:00,44.3,41.3,29.09,ESE,117,5.0,5.0,89,0.07,OVC,,0.14,14.0,WeatherDisplay:10.37,2013-01-29 13:45:00,
2013-01-29 13:50:00,44.2,41.5,29.09,ESE,113,5.8,5.8,90,0.07,RA,,0.15,9.0,WeatherDisplay:10.37,2013-01-29 13:50:00,
2013-01-29 13:55:00,44.2,41.5,29.09,ESE,112,4.6,4.6,90,0.06,RA,,0.15,9.0,WeatherDisplay:10.37,2013-01-29 13:55:00,
2013-01-29 14:00:00,44.3,41.8,29.08,ESE,113,3.5,3.5,91,0.06,OVC,,0.15,11.0,WeatherDisplay:10.37,2013-01-29 14:00:00,
2013-01-29 14:05:00,44.3,41.8,29.07,ESE,113,4.6,4.6,91,0.05,OVC,,0.15,14.0,WeatherDisplay:10.37,2013-01-29 14:05:00,
2013-01-29 14:10:00,44.4,41.9,29.07,ESE,103,3.5,3.5,91,0.04,OVC,,0.15,21.0,WeatherDisplay:10.37,2013-01-29 14:10:00,
2013-01-29 14:15:00,44.4,41.9,29.06,SSW,207,9.0,9.0,91,0.04,OVC,,0.15,16.0,WeatherDisplay:10.37,2013-01-29 14:15:00,
2013-01-29 14:20:00,44.6,42.4,29.06,SSE,157,5.8,5.8,92,0.03,OVC,,0.15,16.0,WeatherDisplay:10.37,2013-01-29 14:20:00,
2013-01-29 14:25:00,45.0,42.8,29.06,SSE,150,6.9,6.9,92,0.02,OVC,,0.15,19.0,WeatherDisplay:10.37,2013-01-29 14:25:00,
2013-01-29 14:30:00,45.4,43.5,29.05,SE,126,16.1,16.1,93,0.02,RA,,0.16,30.0,WeatherDisplay:10.37,2013-01-29 14:30:00,
2013-01-29 14:35:00,45.9,44.0,29.03,SE,146,18.4,18.4,93,0.02,RA,,0.16,26.0,WeatherDisplay:10.37,2013-01-29 14:35:00,
2013-01-29 14:40:00,46.2,44.0,29.02,SSE,162,17.0,17.0,92,0.02,BKN,,0.16,25.0,WeatherDisplay:10.37,2013-01-29 14:40:00,
2013-01-29 14:45:00,46.5,44.3,29.02,SSW,192,19.6,19.6,92,0.02,BKN,,0.16,9.0,WeatherDisplay:10.37,2013-01-29 14:45:00,
2013-01-29 14:50:00,46.7,44.5,29.02,South,175,17.3,17.3,92,0.02,RA,,0.17,9.0,WeatherDisplay:10.37,2013-01-29 14:50:00,
2013-01-29 14:55:00,46.9,44.4,29.01,SSW,209,19.6,19.6,91,0.02,RA,,0.17,11.0,WeatherDisplay:10.37,2013-01-29 14:55:00,
2013-01-29 15:00:00,47.0,44.5,29.01,South,173,17.3,17.3,91,0.03,RA,,0.18,9.0,WeatherDisplay:10.37,2013-01-29 15:00:00,
2013-01-29 15:05:00,47.2,45.0,29.01,SSW,213,18.4,18.4,92,0.05,RA,,0.20,7.0,WeatherDisplay:10.37,2013-01-29 15:05:00,
2013-01-29 15:10:00,47.3,44.8,28.99,South,188,24.2,24.2,91,0.06,RA,,0.20,7.0,WeatherDisplay:10.37,2013-01-29 15:10:00,
2013-01-29 15:15:00,47.5,45.0,28.98,WSW,238,24.2,24.2,91,0.06,RA,,0.20,7.0,WeatherDisplay:10.37,2013-01-29 15:15:00,
2013-01-29 15:20:00,47.5,45.0,28.98,South,184,21.9,21.9,91,0.06,,,0.20,7.0,WeatherDisplay:10.37,2013-01-29 15:20:00,
2013-01-29 15:25:00,47.7,45.2,28.98,SW,221,17.3,17.3,91,0.06,CLR,,0.20,9.0,WeatherDisplay:10.37,2013-01-29 15:25:00,
2013-01-29 15:30:00,47.9,45.4,28.97,South,191,20.7,20.7,91,0.05,OVC,,0.20,7.0,WeatherDisplay:10.37,2013-01-29 15:30:00,
2013-01-29 15:35:00,48.1,45.6,28.97,South,171,22.0,22.0,91,0.05,OVC,,0.20,7.0,WeatherDisplay:10.37,2013-01-29 15:35:00,
2013-01-29 15:40:00,48.3,45.5,28.96,WSW,237,18.0,18.0,90,0.05,OVC,,0.20,7.0,WeatherDisplay:10.37,2013-01-29 15:40:00,
2013-01-29 15:45:00,48.5,45.7,28.96,South,175,26.5,26.5,90,0.05,OVC,,0.20,5.0,WeatherDisplay:10.37,2013-01-29 15:45:00,
2013-01-29 15:50:00,48.6,45.8,28.96,SW,227,19.6,19.6,90,0.04,OVC,,0.20,5.0,WeatherDisplay:10.37,2013-01-29 15:50:00,
2013-01-29 15:55:00,48.8,46.0,28.95,SSE,161,15.0,15.0,90,0.03,OVC,,0.20,5.0,WeatherDisplay:10.37,2013-01-29 15:55:00,
2013-01-29 16:00:00,48.9,46.1,28.94,SSE,167,23.0,23.0,90,0.02,OVC,,0.20,5.0,WeatherDisplay:10.37,2013-01-29 16:00:00,
2013-01-29 16:05:00,49.1,46.3,28.94,SW,227,19.6,19.6,90,0.02,OVC,,0.20,0.0,WeatherDisplay:10.37,2013-01-29 16:05:00,
2013-01-29 16:10:00,49.2,46.4,28.94,SSE,165,20.7,20.7,90,0.00,OVC,,0.20,0.0,WeatherDisplay:10.37,2013-01-29 16:10:00,
2013-01-29 16:15:00,49.3,46.5,28.93,South,173,21.9,21.9,90,0.01,RA,,0.21,0.0,WeatherDisplay:10.37,2013-01-29 16:15:00,
2013-01-29 16:20:00,49.3,46.8,28.93,South,180,19.6,19.6,91,0.01,RA,,0.21,0.0,WeatherDisplay:10.37,2013-01-29 16:20:00,
2013-01-29 16:25:00,49.4,46.9,28.93,South,186,20.7,20.7,91,0.02,RA,,0.22,0.0,WeatherDisplay:10.37,2013-01-29 16:25:00,
2013-01-29 16:30:00,49.4,46.9,28.92,South,170,17.3,17.3,91,0.02,RA,,0.23,0.0,WeatherDisplay:10.37,2013-01-29 16:30:00,
2013-01-29 16:35:00,49.5,47.0,28.92,SSE,164,20.7,20.7,91,0.03,RA,,0.24,0.0,WeatherDisplay:10.37,2013-01-29 16:35:00,
2013-01-29 16:40:00,49.6,47.4,28.93,South,184,17.3,17.3,92,0.04,RA,,0.24,0.0,WeatherDisplay:10.37,2013-01-29 16:40:00,
2013-01-29 16:45:00,49.7,47.5,28.93,SSW,205,13.8,13.8,92,0.06,RA,,0.26,0.0,WeatherDisplay:10.37,2013-01-29 16:45:00,
2013-01-29 16:50:00,49.8,47.6,28.93,WSW,247,11.5,11.5,92,0.08,RA,,0.28,0.0,WeatherDisplay:10.37,2013-01-29 16:50:00,
2013-01-29 16:55:00,49.8,47.6,28.93,SW,232,15.0,15.0,92,0.10,RA,,0.31,0.0,WeatherDisplay:10.37,2013-01-29 16:55:00,
2013-01-29 17:00:00,50.3,48.4,28.94,SW,228,24.2,24.2,93,0.12,RA,,0.34,0.0,WeatherDisplay:10.37,2013-01-29 17:00:00,
2013-01-29 17:05:00,50.6,48.7,28.95,WSW,256,16.1,16.1,93,0.15,RA,,0.35,0.0,WeatherDisplay:10.37,2013-01-29 17:05:00,
2013-01-29 17:10:00,50.5,47.4,28.95,West,272,26.5,26.5,89,0.16,RA,,0.36,0.0,WeatherDisplay:10.37,2013-01-29 17:10:00,
2013-01-29 17:15:00,50.1,46.4,28.95,WSW,246,19.6,19.6,87,0.15,RA,,0.36,0.0,WeatherDisplay:10.37,2013-01-29 17:15:00,
2013-01-29 17:20:00,49.7,45.4,28.95,SW,230,24.2,24.2,85,0.15,,,0.36,0.0,WeatherDisplay:10.37,2013-01-29 17:20:00,
2013-01-29 17:25:00,49.5,45.5,28.96,NW,315,25.3,25.3,86,0.14,CLR,,0.36,0.0,WeatherDisplay:10.37,2013-01-29 17:25:00,
2013-01-29 17:30:00,49.4,45.7,28.97,WSW,239,18.4,18.4,87,0.14,CLR,,0.36,0.0,WeatherDisplay:10.37,2013-01-29 17:30:00,
2013-01-29 17:35:00,49.3,45.6,28.97,West,263,19.6,19.6,87,0.13,CLR,,0.36,0.0,WeatherDisplay:10.37,2013-01-29 17:35:00,
2013-01-29 17:40:00,49.1,45.4,28.97,West,263,19.6,19.6,87,0.12,CLR,,0.36,0.0,WeatherDisplay:10.37,2013-01-29 17:40:00,
2013-01-29 17:45:00,48.9,44.6,28.96,SW,233,25.3,25.3,85,0.10,CLR,,0.36,0.0,WeatherDisplay:10.37,2013-01-29 17:45:00,
2013-01-29 17:50:00,48.6,44.0,28.98,West,260,24.2,24.2,84,0.08,CLR,,0.36,0.0,WeatherDisplay:10.37,2013-01-29 17:50:00,
2013-01-29 17:55:00,48.5,43.6,28.98,WNW,292,21.9,21.9,83,0.06,CLR,,0.36,0.0,WeatherDisplay:10.37,2013-01-29 17:55:00,
2013-01-29 18:00:00,48.3,43.1,28.98,NW,321,24.2,24.2,82,0.05,CLR,,0.36,0.0,WeatherDisplay:10.37,2013-01-29 18:00:00,
2013-01-29 18:05:00,48.3,42.7,28.97,SW,217,33.4,33.4,81,0.01,CLR,,0.36,0.0,WeatherDisplay:10.37,2013-01-29 18:05:00,
2013-01-29 18:10:00,48.2,42.6,28.98,WSW,240,18.4,18.4,81,0.00,CLR,,0.36,0.0,WeatherDisplay:10.37,2013-01-29 18:10:00,
2013-01-29 18:15:00,48.0,42.1,28.98,SW,230,21.0,21.0,80,0.00,CLR,,0.36,0.0,WeatherDisplay:10.37,2013-01-29 18:15:00,
2013-01-29 18:20:00,47.8,41.9,28.98,WSW,248,32.2,32.2,80,0.00,CLR,,0.36,0.0,WeatherDisplay:10.37,2013-01-29 18:20:00,
2013-01-29 18:25:00,47.6,41.7,28.98,WSW,250,18.4,18.4,80,0.00,CLR,,0.36,0.0,WeatherDisplay:10.37,2013-01-29 18:25:00,
2013-01-29 18:30:00,47.5,41.0,28.99,WSW,249,24.2,24.2,78,0.00,CLR,,0.36,0.0,WeatherDisplay:10.37,2013-01-29 18:30:00,
2013-01-29 18:36:00,47.3,40.5,29.00,WSW,248,24.0,24.0,77,0.00,CLR,,0.36,0.0,WeatherDisplay:10.37,2013-01-29 18:36:00,
2013-01-29 18:41:00,47.3,40.5,28.99,West,271,19.6,19.6,77,0.00,CLR,,0.36,0.0,WeatherDisplay:10.37,2013-01-29 18:41:00,
2013-01-29 18:46:00,47.0,40.5,28.99,NW,313,26.5,26.5,78,0.00,CLR,,0.36,0.0,WeatherDisplay:10.37,2013-01-29 18:46:00,
2013-01-29 18:51:00,46.8,40.3,29.00,NW,306,20.7,20.7,78,0.00,CLR,,0.36,0.0,WeatherDisplay:10.37,2013-01-29 18:51:00,
2013-01-29 18:56:00,46.5,40.0,29.00,WNW,303,15.0,15.0,78,0.00,CLR,,0.36,0.0,WeatherDisplay:10.37,2013-01-29 18:56:00,
2013-01-29 19:01:00,46.4,39.2,29.00,WSW,255,25.3,25.3,76,0.00,CLR,,0.36,0.0,WeatherDisplay:10.37,2013-01-29 19:01:00,
2013-01-29 19:06:00,46.3,39.1,29.00,WSW,253,25.3,25.3,76,0.00,CLR,,0.36,0.0,WeatherDisplay:10.37,2013-01-29 19:06:00,
2013-01-29 19:11:00,46.3,39.1,29.00,WNW,287,28.8,28.8,76,0.00,CLR,,0.36,0.0,WeatherDisplay:10.37,2013-01-29 19:11:00,
2013-01-29 19:16:00,46.2,38.7,29.00,West,269,26.5,26.5,75,0.00,CLR,,0.36,0.0,WeatherDisplay:10.37,2013-01-29 19:16:00,
2013-01-29 19:21:00,46.3,38.5,29.00,SW,219,25.0,25.0,74,0.00,CLR,,0.36,0.0,WeatherDisplay:10.37,2013-01-29 19:21:00,
2013-01-29 19:26:00,46.2,38.0,29.00,West,260,26.5,26.5,73,0.00,CLR,,0.36,0.0,WeatherDisplay:10.37,2013-01-29 19:26:00,
2013-01-29 19:31:00,46.1,37.6,29.00,WSW,242,40.3,40.3,72,0.00,CLR,,0.36,0.0,WeatherDisplay:10.37,2013-01-29 19:31:00,
2013-01-29 19:36:00,46.1,37.6,29.01,SW,232,32.2,32.2,72,0.00,CLR,,0.36,0.0,WeatherDisplay:10.37,2013-01-29 19:36:00,
2013-01-29 19:41:00,46.1,37.2,29.00,WSW,246,29.9,29.9,71,0.00,CLR,,0.36,0.0,WeatherDisplay:10.37,2013-01-29 19:41:00,
2013-01-29 19:46:00,46.1,37.6,29.01,West,271,24.2,24.2,72,0.00,CLR,,0.36,0.0,WeatherDisplay:10.37,2013-01-29 19:46:00,
2013-01-29 19:51:00,46.0,37.5,29.01,SW,228,25.3,25.3,72,0.00,CLR,,0.36,0.0,WeatherDisplay:10.37,2013-01-29 19:51:00,
2013-01-29 19:56:00,45.8,37.3,29.02,SSW,213,20.0,20.0,72,0.00,CLR,,0.36,0.0,WeatherDisplay:10.37,2013-01-29 19:56:00,
2013-01-29 19:58:00,45.7,37.2,29.02,West,261,23.0,23.0,72,0.00,CLR,,0.36,0.0,WeatherDisplay:10.37,2013-01-29 19:58:00,
2013-01-29 20:03:00,45.7,37.2,29.02,WNW,290,35.7,35.7,72,0.00,CLR,,0.36,0.0,WeatherDisplay:10.37,2013-01-29 20:03:00,
2013-01-29 20:08:00,45.7,37.2,29.03,WSW,247,34.5,34.5,72,0.00,CLR,,0.36,0.0,WeatherDisplay:10.37,2013-01-29 20:08:00,
2013-01-29 20:13:00,45.7,37.5,29.02,West,280,29.9,29.9,73,0.00,CLR,,0.36,0.0,WeatherDisplay:10.37,2013-01-29 20:13:00,
2013-01-29 20:18:00,45.7,37.5,29.02,West,277,27.6,27.6,73,0.00,CLR,,0.36,0.0,WeatherDisplay:10.37,2013-01-29 20:18:00,
2013-01-29 20:23:00,45.6,37.8,29.03,West,263,23.0,23.0,74,0.00,CLR,,0.36,0.0,WeatherDisplay:10.37,2013-01-29 20:23:00,
2013-01-29 20:28:00,45.5,37.3,29.04,SW,230,29.0,29.0,73,0.00,CLR,,0.36,0.0,WeatherDisplay:10.37,2013-01-29 20:28:00,
2013-01-29 20:33:00,45.6,37.4,29.03,West,263,26.5,26.5,73,0.00,CLR,,0.36,0.0,WeatherDisplay:10.37,2013-01-29 20:33:00,
2013-01-29 20:38:00,45.6,37.8,29.03,SW,231,29.9,29.9,74,0.00,CLR,,0.36,0.0,WeatherDisplay:10.37,2013-01-29 20:38:00,
2013-01-29 20:43:00,45.5,37.7,29.03,WSW,256,35.7,35.7,74,0.00,CLR,,0.36,0.0,WeatherDisplay:10.37,2013-01-29 20:43:00,
2013-01-29 20:48:00,45.4,37.6,29.04,SW,233,25.3,25.3,74,0.00,CLR,,0.36,0.0,WeatherDisplay:10.37,2013-01-29 20:48:00,
2013-01-29 20:53:00,45.4,37.2,29.04,West,260,29.9,29.9,73,0.00,CLR,,0.36,0.0,WeatherDisplay:10.37,2013-01-29 20:53:00,
2013-01-29 20:58:00,45.5,37.3,29.05,SW,232,26.5,26.5,73,0.00,CLR,,0.36,0.0,WeatherDisplay:10.37,2013-01-29 20:58:00,
2013-01-29 21:03:00,45.5,37.3,29.05,WNW,290,32.2,32.2,73,0.00,CLR,,0.36,0.0,WeatherDisplay:10.37,2013-01-29 21:03:00,
2013-01-29 21:08:00,45.4,37.2,29.05,West,263,26.5,26.5,73,0.00,CLR,,0.36,0.0,WeatherDisplay:10.37,2013-01-29 21:08:00,
2013-01-29 21:13:00,45.3,37.2,29.05,West,259,25.3,25.3,73,0.00,CLR,,0.36,0.0,WeatherDisplay:10.37,2013-01-29 21:13:00,
2013-01-29 21:18:00,45.2,37.1,29.05,SW,219,33.4,33.4,73,0.00,CLR,,0.36,0.0,WeatherDisplay:10.37,2013-01-29 21:18:00,
2013-01-29 21:23:00,45.1,37.0,29.05,WSW,246,23.0,23.0,73,0.00,CLR,,0.36,0.0,WeatherDisplay:10.37,2013-01-29 21:23:00,
2013-01-29 21:28:00,45.0,37.2,29.06,WSW,257,24.2,24.2,74,0.00,CLR,,0.36,0.0,WeatherDisplay:10.37,2013-01-29 21:28:00,
2013-01-29 21:33:00,44.9,37.1,29.05,SW,234,20.0,20.0,74,0.00,CLR,,0.36,0.0,WeatherDisplay:10.37,2013-01-29 21:33:00,
2013-01-29 21:38:00,44.8,36.7,29.05,West,266,33.4,33.4,73,0.00,CLR,,0.36,0.0,WeatherDisplay:10.37,2013-01-29 21:38:00,
2013-01-29 21:43:00,44.8,37.0,29.06,West,264,25.3,25.3,74,0.00,CLR,,0.36,0.0,WeatherDisplay:10.37,2013-01-29 21:43:00,
2013-01-29 21:48:00,44.8,37.0,29.06,WSW,237,25.3,25.3,74,0.00,CLR,,0.36,0.0,WeatherDisplay:10.37,2013-01-29 21:48:00,
2013-01-29 21:53:00,44.7,36.9,29.06,WSW,242,20.7,20.7,74,0.00,CLR,,0.36,0.0,WeatherDisplay:10.37,2013-01-29 21:53:00,
2013-01-29 21:58:00,44.7,36.9,29.06,SW,227,27.6,27.6,74,0.00,CLR,,0.36,0.0,WeatherDisplay:10.37,2013-01-29 21:58:00,
2013-01-29 22:03:00,44.6,36.5,29.06,WSW,239,31.1,31.1,73,0.00,CLR,,0.36,0.0,WeatherDisplay:10.37,2013-01-29 22:03:00,
2013-01-29 22:08:00,44.6,36.8,29.07,West,260,26.5,26.5,74,0.00,CLR,,0.36,0.0,WeatherDisplay:10.37,2013-01-29 22:08:00,
2013-01-29 22:13:00,44.5,36.7,29.07,SW,230,17.3,17.3,74,0.00,CLR,,0.36,0.0,WeatherDisplay:10.37,2013-01-29 22:13:00,
2013-01-29 22:18:00,44.4,36.6,29.07,WSW,248,33.4,33.4,74,0.00,CLR,,0.36,0.0,WeatherDisplay:10.37,2013-01-29 22:18:00,
2013-01-29 22:23:00,44.4,36.6,29.06,WSW,250,20.7,20.7,74,0.00,CLR,,0.36,0.0,WeatherDisplay:10.37,2013-01-29 22:23:00,
2013-01-29 22:28:00,44.4,36.6,29.07,West,273,25.3,25.3,74,0.00,CLR,,0.36,0.0,WeatherDisplay:10.37,2013-01-29 22:28:00,
2013-01-29 22:33:00,44.4,36.3,29.07,SW,234,25.0,25.0,73,0.00,CLR,,0.36,0.0,WeatherDisplay:10.37,2013-01-29 22:33:00,
2013-01-29 22:38:00,44.4,36.3,29.07,West,272,33.4,33.4,73,0.00,CLR,,0.36,0.0,WeatherDisplay:10.37,2013-01-29 22:38:00,
2013-01-29 22:43:00,44.5,36.0,29.08,SW,222,24.2,24.2,72,0.00,CLR,,0.36,0.0,WeatherDisplay:10.37,2013-01-29 22:43:00,
2013-01-29 22:48:00,44.5,36.0,29.08,WNW,283,24.2,24.2,72,0.00,CLR,,0.36,0.0,WeatherDisplay:10.37,2013-01-29 22:48:00,
2013-01-29 22:53:00,44.4,36.3,29.08,WNW,296,26.5,26.5,73,0.00,CLR,,0.36,0.0,WeatherDisplay:10.37,2013-01-29 22:53:00,
2013-01-29 22:59:00,44.3,36.2,29.08,WSW,242,29.9,29.9,73,0.00,CLR,,0.36,0.0,WeatherDisplay:10.37,2013-01-29 22:59:00,
2013-01-29 23:04:00,44.3,36.2,29.08,WSW,248,17.3,17.3,73,0.00,CLR,,0.36,0.0,WeatherDisplay:10.37,2013-01-29 23:04:00,
2013-01-29 23:09:00,44.3,36.2,29.08,SW,224,28.8,28.8,73,0.00,CLR,,0.36,0.0,WeatherDisplay:10.37,2013-01-29 23:09:00,
2013-01-29 23:14:00,44.2,35.7,29.08,SW,223,19.6,19.6,72,0.00,CLR,,0.36,0.0,WeatherDisplay:10.37,2013-01-29 23:14:00,
2013-01-29 23:19:00,44.2,35.7,29.08,WSW,257,23.0,23.0,72,0.00,CLR,,0.36,0.0,WeatherDisplay:10.37,2013-01-29 23:19:00,
2013-01-29 23:24:00,44.2,35.7,29.08,WSW,248,19.0,19.0,72,0.00,CLR,,0.36,0.0,WeatherDisplay:10.37,2013-01-29 23:24:00,
2013-01-29 23:29:00,44.1,36.0,29.09,WSW,244,26.5,26.5,73,0.00,CLR,,0.36,0.0,WeatherDisplay:10.37,2013-01-29 23:29:00,
2013-01-29 23:34:00,44.1,36.3,29.08,WSW,247,13.0,13.0,74,0.00,CLR,,0.36,0.0,WeatherDisplay:10.37,2013-01-29 23:34:00,
2013-01-29 23:39:00,44.0,35.9,29.09,WSW,254,26.5,26.5,73,0.00,CLR,,0.36,0.0,WeatherDisplay:10.37,2013-01-29 23:39:00,
2013-01-29 23:44:00,44.0,35.9,29.09,West,259,26.5,26.5,73,0.00,CLR,,0.36,0.0,WeatherDisplay:10.37,2013-01-29 23:44:00,
2013-01-29 23:49:00,44.0,35.9,29.09,WSW,240,20.7,20.7,73,0.00,CLR,,0.36,0.0,WeatherDisplay:10.37,2013-01-29 23:49:00,
2013-01-29 23:54:00,44.0,35.9,29.09,WSW,250,12.7,12.7,73,0.00,CLR,,0.36,0.0,WeatherDisplay:10.37,2013-01-29 23:54:00,
2013-01-29 23:59:00,43.9,35.8,29.10,West,263,24.2,24.2,73,0.00,CLR,,0.36,0.0,WeatherDisplay:10.37,2013-01-29 23:59:00,